Temp
3 2 2 2 2 1 1 0 -0 0 1 3 3 1 1 1 2 2 2 2 4 6 7 9 13 13 14 14 14 14 14 14 12 12 12 12 12 11 12 11 11 11 10
3 2 2 1 1 1 0 3 2 1 2 1 -0 1 1 1 2 3 3 3 2 4 6 7 10 12 13 13 13 14 14 12 11 12 12 13 11 11 11 11 9 8 8
2 3 2 1 1 0 0 -0 2 1 2 2 -0 0 1 2 2 3 4 5 4 3 5 7 9 11 11 13 13 13 13 10 11 11 12 12 11 10 11 9 9 10 8
2 2 2 1 0 0 0 -0 -1 1 -0 -1 0 1 1 2 3 3 3 3 4 5 4 6 7 10 11 13 13 12 11 9 10 11 11 12 10 10 10 9 9 9 7
2 2 2 1 -0 1 0 -0 -1 -1 1 -1 -1 -0 -0 1 1 1 3 3 4 4 4 5 6 9 10 11 12 11 10 9 10 10 11 10 9 9 9 8 9 8 8
2 2 2 1 0 0 -0 -1 -1 -2 -1 -1 -2 -2 -1 -1 -1 0 1 3 4 5 5 5 6 9 10 11 12 11 11 10 11 10 10 9 10 11 8 8 8 7 8
2 2 1 1 -0 -1 -1 -1 -1 -1 -2 -1 -2 -2 -2 -1 -1 -0 1 3 6 6 6 5 6 8 10 10 11 11 11 10 12 12 10 9 7 9 8 8 7 7 8
1 1 1 1 -1 -1 -2 -2 -2 -1 -1 -2 -1 -2 -3 -1 -1 -1 1 3 6 8 8 7 5 8 10 10 11 9 10 9 9 9 9 8 7 6 7 7 8 7 7
1 1 1 0 -1 -1 -2 -2 -3 -1 -2 -2 -2 -3 -3 -2 -1 -1 1 2 6 7 7 7 6 8 9 10 10 9 6 6 7 7 7 7 7 8 8 8 6 6 7
0 0 0 -0 -1 -2 -2 -3 -3 -2 -2 -3 -3 -2 -3 -2 -2 -1 -1 -0 2 3 7 8 8 7 9 8 8 6 4 4 6 7 7 7 7 7 6 6 5 6 7
-0 -0 -0 -0 -1 -2 -3 -3 -3 -2 -2 -3 -3 -2 -3 -2 -1 -1 -1 -1 -1 -1 2 6 7 7 7 4 3 3 4 3 3 5 5 5 5 4 4 4 5 5 5
-0 -0 -0 -1 -1 -2 -3 -3 -3 -3 -3 -4 -4 -2 -2 -2 -1 -1 -2 -1 -1 -1 0 2 3 3 3 3 3 3 3 3 2 3 3 3 2 2 2 2 4 3 3
-0 -0 -0 -1 -1 -2 -2 -3 -3 -3 -4 -4 -4 -4 -4 -2 -2 -1 -2 -2 -2 -1 -1 0 2 2 2 2 3 2 2 1 1 1 1 1 2 2 2 1 2 1 1
0 0 -0 -0 -1 -0 -1 -2 -2 -2 -4 -4 -4 -4 -4 -4 -3 -3 -3 -2 -1 -2 -1 -1 -0 0 0 0 0 0 0 -0 -0 0 0 0 0 0 1 1 2 1 1
1 0 0 0 -0 -0 -0 -1 -2 -2 -4 -5 -5 -5 -5 -5 -4 -4 -4 -3 -2 -2 -1 -1 -1 -1 -1 -1 -1 -1 -1 -0 -0 -0 -0 -0 0 0 0 0 0 1 1
1 0 0 0 -0 -0 -0 -0 -1 -2 -3 -3 -4 -4 -5 -4 -3 -3 -3 -3 -3 -2 -1 -2 -2 -2 -2 -1 -1 -1 -1 -1 -1 -1 -1 -1 -0 0 0 0 1 1 1
0 -0 0 0 -0 -1 -1 -1 -1 -1 -1 -2 -3 -3 -3 -3 -3 -3 -4 -4 -4 -4 -4 -4 -4 -3 -3 -3 -2 -2 -2 -2 -1 -1 -1 -1 -1 -0 -0 -0 -0 0 0
0 0 0 0 -0 -1 -1 -1 -1 -1 -1 -1 -2 -3 -3 -3 -4 -4 -4 -3 -3 -4 -4 -4 -4 -5 -4 -4 -3 -3 -3 -2 -2 -2 -2 -2 -1 -1 -1 -0 -0 -1 -0
0 0 -0 0 0 -1 -0 -1 -2 -2 -1 -1 -2 -2 -4 -3 -4 -4 -4 -3 -3 -4 -5 -5 -5 -5 -5 -5 -4 -4 -4 -3 -3 -3 -2 -2 -2 -2 -1 -1 -1 -1 -1
1 -0 -1 -0 0 -0 -0 -1 -2 -2 -1 -2 -2 -2 -4 -4 -2 -3 -3 -3 -4 -5 -6 -6 -6 -6 -6 -6 -5 -4 -4 -4 -4 -3 -3 -3 -3 -3 -3 -3 -2 -2 -1
1 -0 -1 -0 0 -0 -1 -1 -1 -2 -2 -2 -2 -2 -4 -4 -3 -3 -3 -3 -3 -5 -6 -6 -7 -7 -7 -6 -6 -6 -6 -5 -4 -4 -4 -4 -4 -4 -3 -3 -3 -2 -2
0 -1 -1 -1 -0 -0 -1 -1 -2 -3 -2 -2 -2 -2 -4 -3 -3 -3 -3 -3 -4 -4 -6 -7 -7 -7 -7 -7 -7 -7 -6 -6 -5 -5 -5 -4 -4 -4 -4 -4 -3 -3 -3
0 -1 -1 -0 -1 -1 -1 -1 -2 -2 -2 -2 -3 -3 -3 -3 -4 -4 -4 -4 -4 -4 -5 -6 -7 -7 -7 -7 -7 -7 -7 -7 -6 -6 -5 -5 -5 -4 -4 -4 -4 -4 -3
-1 -1 -1 -1 -1 -1 -1 -2 -2 -2 -3 -3 -3 -4 -4 -4 -4 -4 -4 -4 -4 -4 -5 -6 -7 -7 -7 -7 -7 -7 -7 -7 -7 -6 -6 -5 -5 -5 -5 -5 -4 -4 -4
-1 -1 -1 -1 -1 -2 -2 -3 -4 -4 -4 -4 -4 -4 -5 -5 -5 -5 -5 -5 -5 -5 -6 -6 -6 -6 -6 -6 -7 -7 -7 -5 -6 -6 -6 -6 -6 -5 -5 -5 -4 -5 -4
-1 -1 -1 -1 -2 -3 -3 -4 -4 -5 -5 -5 -5 -5 -6 -6 -6 -6 -6 -6 -6 -6 -6 -6 -6 -7 -5 -5 -5 -5 -5 -5 -6 -6 -6 -6 -6 -6 -6 -5 -5 -5 -5
Height
1545 1541 1537 1532 1527 1521 1515 1508 1502 1495 1488 1481 1474 1468 1463 1457 1454 1450 1447 1444 1442 1440 1439 1437 1437 1440 1438 1441 1444 1446 1448 1451 1453 1457 1461 1464 1465 1469 1470 1474 1477 1484 1483
1545 1541 1537 1532 1527 1521 1514 1505 1498 1491 1483 1476 1469 1462 1454 1448 1443 1438 1433 1430 1428 1426 1425 1425 1423 1428 1428 1429 1431 1432 1436 1439 1444 1447 1452 1456 1460 1462 1465 1468 1476 1479 1481
1544 1541 1536 1529 1525 1519 1512 1503 1496 1487 1479 1470 1463 1455 1446 1439 1433 1429 1423 1418 1414 1411 1412 1411 1410 1414 1414 1417 1418 1421 1427 1428 1435 1437 1443 1449 1454 1457 1458 1464 1469 1471 1473
1544 1540 1536 1530 1524 1519 1512 1504 1494 1485 1477 1468 1459 1450 1441 1432 1425 1418 1411 1406 1401 1398 1397 1397 1396 1400 1400 1404 1406 1409 1415 1420 1427 1431 1437 1442 1447 1452 1455 1458 1462 1464 1468
1543 1539 1535 1529 1523 1518 1511 1503 1494 1484 1475 1466 1455 1446 1437 1428 1418 1409 1401 1393 1388 1384 1382 1382 1381 1384 1388 1392 1393 1398 1405 1411 1418 1425 1429 1435 1440 1443 1449 1454 1460 1460 1460
1542 1538 1533 1529 1522 1516 1509 1501 1493 1484 1474 1464 1453 1443 1433 1423 1413 1403 1393 1381 1374 1370 1366 1368 1369 1372 1375 1381 1384 1387 1393 1399 1407 1412 1419 1426 1431 1436 1444 1449 1452 1453 1457
1540 1536 1531 1526 1520 1513 1506 1498 1490 1482 1473 1461 1450 1442 1432 1420 1407 1393 1381 1367 1359 1355 1353 1354 1358 1359 1364 1371 1374 1379 1383 1391 1398 1401 1408 1420 1427 1432 1438 1443 1446 1446 1451
1538 1533 1529 1523 1516 1509 1504 1495 1488 1481 1472 1461 1449 1442 1433 1418 1402 1386 1369 1356 1347 1341 1340 1341 1345 1351 1354 1361 1365 1373 1372 1382 1390 1397 1403 1414 1423 1429 1433 1437 1437 1439 1443
1536 1531 1527 1522 1514 1507 1501 1493 1487 1480 1472 1463 1451 1441 1431 1416 1399 1381 1365 1349 1338 1333 1332 1332 1335 1344 1348 1351 1360 1365 1368 1367 1382 1391 1400 1406 1417 1423 1426 1428 1431 1436 1440
1534 1530 1525 1520 1514 1506 1499 1492 1486 1481 1473 1463 1452 1442 1431 1417 1404 1386 1368 1352 1339 1332 1327 1329 1332 1337 1341 1350 1353 1357 1368 1376 1364 1383 1390 1404 1412 1416 1422 1426 1429 1433 1436
1533 1529 1524 1518 1513 1504 1498 1493 1486 1481 1472 1463 1452 1442 1432 1417 1404 1391 1377 1361 1352 1344 1331 1327 1328 1333 1342 1347 1355 1359 1361 1384 1382 1385 1388 1398 1407 1412 1415 1417 1425 1424 1433
1533 1528 1522 1517 1511 1503 1497 1492 1486 1480 1471 1463 1452 1442 1432 1420 1409 1399 1388 1376 1367 1355 1342 1339 1337 1338 1346 1354 1358 1363 1369 1387 1388 1389 1395 1400 1406 1411 1414 1420 1418 1420 1428
1533 1527 1521 1516 1510 1503 1497 1491 1486 1480 1471 1463 1455 1444 1434 1425 1415 1407 1399 1390 1380 1370 1361 1358 1354 1355 1356 1362 1368 1372 1377 1387 1398 1397 1398 1406 1406 1408 1409 1414 1414 1419 1422
1532 1526 1521 1515 1509 1505 1499 1492 1486 1480 1472 1464 1456 1448 1440 1431 1422 1413 1407 1401 1391 1384 1376 1372 1369 1368 1370 1370 1378 1381 1383 1395 1401 1400 1398 1402 1403 1404 1410 1414 1419 1421 1423
1532 1526 1520 1516 1510 1504 1499 1493 1487 1482 1474 1467 1460 1453 1445 1436 1430 1425 1416 1408 1403 1397 1392 1388 1385 1382 1385 1386 1388 1389 1393 1398 1397 1399 1401 1404 1405 1407 1412 1414 1417 1420 1422
1532 1526 1520 1516 1510 1505 1499 1493 1487 1480 1474 1468 1463 1456 1450 1444 1437 1429 1422 1416 1410 1405 1401 1397 1395 1396 1397 1397 1397 1399 1401 1403 1402 1403 1403 1405 1412 1413 1412 1415 1417 1419 1420
1531 1526 1520 1515 1510 1504 1499 1493 1487 1482 1476 1469 1463 1458 1452 1445 1439 1432 1426 1421 1416 1412 1409 1407 1405 1404 1404 1401 1404 1406 1406 1406 1405 1407 1409 1412 1414 1408 1414 1416 1416 1417 1419
1530 1525 1520 1515 1510 1504 1499 1494 1488 1482 1476 1471 1466 1459 1452 1446 1440 1436 1430 1427 1423 1418 1414 1412 1411 1410 1412 1413 1410 1405 1404 1404 1404 1406 1409 1412 1410 1410 1412 1413 1416 1416 1417
1527 1523 1518 1514 1510 1504 1499 1494 1488 1483 1478 1472 1466 1461 1454 1446 1442 1439 1435 1432 1428 1425 1421 1417 1414 1412 1408 1406 1404 1404 1405 1406 1407 1408 1409 1409 1408 1408 1410 1414 1415 1413 1415
1524 1519 1515 1513 1509 1504 1499 1494 1488 1483 1478 1473 1467 1462 1455 1448 1445 1441 1437 1434 1431 1427 1422 1418 1416 1414 1412 1410 1409 1408 1406 1406 1408 1409 1410 1409 1408 1408 1408 1410 1413 1411 1411
1521 1518 1515 1511 1508 1503 1498 1493 1488 1483 1478 1473 1468 1463 1457 1450 1448 1443 1439 1435 1431 1426 1422 1418 1414 1411 1408 1407 1405 1404 1403 1404 1406 1407 1406 1404 1404 1405 1405 1407 1409 1410 1408
1517 1514 1512 1509 1506 1502 1497 1492 1488 1483 1479 1474 1469 1464 1457 1454 1449 1445 1440 1436 1432 1428 1421 1415 1412 1409 1407 1404 1402 1400 1400 1401 1403 1403 1403 1403 1403 1404 1405 1406 1408 1409 1408
1510 1509 1509 1507 1503 1499 1495 1491 1487 1483 1478 1474 1469 1464 1459 1454 1450 1445 1441 1437 1434 1430 1425 1418 1413 1411 1409 1407 1405 1404 1403 1402 1401 1400 1399 1401 1401 1402 1403 1405 1406 1404 1406
1508 1507 1507 1504 1501 1497 1493 1488 1485 1481 1477 1472 1468 1464 1459 1455 1451 1447 1442 1438 1432 1428 1424 1418 1413 1408 1405 1402 1400 1398 1398 1397 1396 1396 1397 1397 1399 1400 1401 1402 1402 1401 1404
1506 1506 1505 1502 1499 1495 1491 1487 1483 1479 1475 1471 1467 1463 1458 1454 1450 1446 1441 1437 1433 1428 1423 1419 1413 1407 1403 1401 1398 1396 1394 1392 1393 1391 1392 1394 1395 1397 1399 1399 1399 1402 1404
1505 1505 1503 1500 1497 1493 1489 1485 1481 1477 1473 1469 1465 1461 1457 1452 1449 1445 1440 1436 1431 1426 1423 1418 1413 1408 1404 1400 1396 1393 1392 1390 1388 1387 1389 1391 1393 1395 1397 1396 1396 1400 1399
Wind_Speed
20 20 21 23 29 30 30 31 30 31 32 35 35 35 36 39 38 38 38 37 38 39 39 41 43 47 53 49 48 46 50 53 35 30 26 24 24 29 27 24 26 21 19
19 20 21 22 26 28 32 37 35 34 35 35 35 37 39 41 41 40 41 41 38 38 38 39 42 46 50 45 47 47 51 52 43 36 26 28 29 28 27 24 21 15 14
19 19 21 23 24 27 30 34 39 38 40 40 38 39 43 41 39 39 41 40 43 39 38 40 43 45 51 48 48 46 46 44 42 36 34 31 25 27 27 22 22 18 14
17 18 19 21 22 26 28 31 34 37 37 38 41 44 45 43 39 35 34 35 38 41 37 40 45 48 50 47 49 47 45 34 36 38 33 32 30 29 26 22 19 16 11
17 18 19 21 21 24 27 29 31 35 36 39 41 44 44 43 39 40 40 40 39 43 39 39 45 47 52 49 48 47 42 37 37 34 37 33 33 29 30 23 17 14 12
17 17 18 20 22 23 26 29 29 32 35 36 39 46 46 43 41 40 41 46 46 45 44 37 43 43 53 47 53 48 47 48 44 47 37 34 35 33 25 24 18 14 11
17 17 18 20 22 24 25 28 30 31 35 38 35 43 49 45 43 42 44 44 43 44 44 42 35 40 52 48 54 52 49 50 45 49 45 34 29 35 28 23 17 13 9
18 19 19 22 23 25 26 28 30 32 31 36 35 35 47 49 44 42 44 38 34 35 38 39 41 33 47 50 54 50 53 48 45 42 37 32 25 24 23 17 15 11 10
19 19 20 21 24 24 27 30 29 30 33 32 37 34 40 50 47 44 40 32 24 26 26 25 35 35 45 48 52 51 39 44 40 36 30 30 28 25 21 15 10 9 7
20 20 19 20 22 23 25 29 29 28 29 31 32 37 39 45 49 43 36 31 20 9 16 23 30 39 45 44 50 46 37 35 45 40 33 26 23 19 14 13 10 8 6
19 19 19 20 21 24 23 25 26 27 29 30 32 36 39 43 47 48 41 40 35 26 17 16 22 27 30 35 37 40 40 31 25 30 29 26 19 15 10 9 11 7 7
19 19 19 19 20 23 23 21 24 27 28 31 34 38 41 43 42 44 43 36 37 39 34 33 30 34 35 34 32 29 28 23 20 19 18 16 15 9 9 6 7 9 7
18 19 20 19 19 23 21 22 24 26 29 32 34 36 39 42 41 38 39 37 36 31 33 35 34 31 31 27 25 26 24 19 15 14 15 17 17 14 9 3 3 5 5
18 19 20 20 21 20 21 22 23 25 27 32 32 33 33 35 41 40 36 34 32 33 33 27 19 19 20 21 16 18 19 15 13 13 14 10 9 7 5 4 4 4 4
19 20 19 19 20 20 20 21 21 20 25 25 26 26 30 33 33 31 30 29 26 24 23 26 28 27 22 22 19 18 15 12 11 10 8 6 6 7 6 4 4 4 4
19 21 19 19 20 20 21 21 22 26 29 29 29 25 24 25 25 25 22 24 21 17 16 20 20 18 16 15 14 12 10 10 9 7 7 6 5 6 4 3 4 4 5
18 21 19 19 19 20 21 22 24 22 22 25 29 31 27 23 23 25 22 25 24 19 18 16 14 12 12 11 7 6 5 6 7 6 6 4 3 4 3 3 2 3 4
14 20 21 18 18 20 20 21 22 22 24 22 22 28 30 24 27 28 25 19 19 19 17 15 13 11 6 5 5 6 5 4 3 3 1 2 1 2 2 2 3 3 4
13 14 18 17 18 19 19 19 20 20 22 22 22 22 26 23 25 23 22 19 18 16 15 13 12 10 9 8 5 5 4 1 1 1 1 1 1 1 2 4 5 6 6
13 18 18 17 19 19 20 20 21 20 21 22 22 23 26 23 21 22 20 19 18 16 16 14 12 10 8 7 5 5 2 1 2 2 2 3 3 4 4 4 6 4 4
12 12 15 17 19 19 20 19 19 18 19 21 21 21 29 22 21 20 20 20 19 19 17 15 14 13 11 10 8 6 4 5 4 4 5 3 3 3 2 4 4 5 5
12 12 12 15 18 19 20 19 18 18 18 20 20 20 24 19 19 20 20 19 19 19 20 19 17 14 12 11 10 9 6 4 5 6 5 4 4 4 4 5 5 7 6
20 9 9 15 16 20 19 19 17 18 19 19 19 19 20 19 19 19 19 19 18 18 19 18 17 14 12 10 9 8 7 7 7 7 7 6 5 5 5 6 5 5 5
6 5 11 13 16 19 18 18 17 18 18 18 17 18 18 18 18 18 18 19 19 20 19 20 18 17 17 16 13 11 10 10 10 10 10 10 8 8 7 8 8 5 6
6 7 11 14 17 17 17 17 16 17 17 17 17 17 17 17 17 18 18 17 18 19 19 19 20 21 20 18 16 14 15 15 12 14 15 14 12 12 11 12 8 9 10
4 6 11 14 14 15 15 16 17 17 18 18 18 18 18 17 17 17 17 17 19 19 18 18 18 21 22 19 16 15 16 16 14 13 15 17 18 16 13 13 10 10 9
Wind_Direction
352 350 347 349 352 352 348 344 338 335 332 328 321 313 308 305 301 294 286 280 275 270 265 263 255 252 257 254 258 250 243 238 219 212 212 223 226 219 233 222 235 238 249
349 349 345 343 347 349 349 351 349 345 344 340 333 327 322 312 306 301 296 291 277 270 266 262 255 245 252 255 258 246 245 234 219 218 215 222 219 222 226 223 219 224 223
348 348 345 347 348 348 347 349 351 349 350 350 342 335 331 325 313 307 302 293 287 276 264 260 252 244 246 251 255 241 239 219 216 216 210 219 210 211 219 212 223 228 239
348 348 345 347 345 346 346 346 347 351 350 349 346 344 339 331 321 314 303 299 295 284 266 254 249 242 246 243 249 243 222 209 202 208 208 209 207 212 216 216 221 221 217
345 346 345 346 349 345 347 345 347 348 352 355 350 347 343 337 330 317 303 291 280 280 271 254 250 237 244 242 238 219 215 203 201 198 207 207 205 205 207 197 203 203 232
345 343 343 344 347 345 346 348 343 343 351 358 353 352 347 342 333 322 307 294 284 275 268 256 251 235 239 244 238 221 218 209 207 201 197 206 207 215 195 205 194 205 204
345 344 343 343 342 346 347 349 349 345 342 352 355 349 353 349 339 326 314 304 292 279 268 252 248 234 235 241 231 221 217 220 221 213 205 199 195 202 199 197 195 195 196
347 346 345 342 338 345 345 350 350 350 346 347 356 345 349 356 348 335 324 318 301 284 268 261 241 233 233 236 227 212 210 212 211 207 201 196 194 183 192 184 198 198 222
348 346 345 343 336 342 346 349 354 351 349 346 355 355 353 2 359 351 338 336 316 282 272 256 240 230 235 227 227 217 197 190 188 184 173 181 186 185 185 186 187 187 204
349 345 343 343 339 342 345 353 351 352 351 348 353 359 4 9 7 6 7 9 356 1 242 250 226 237 238 228 217 198 174 172 173 176 173 173 177 182 188 174 185 195 212
347 343 343 344 343 341 350 348 353 352 353 353 357 5 4 15 12 13 17 31 31 33 86 166 198 211 197 173 167 165 162 163 160 159 162 168 174 183 192 218 215 185 210
347 346 345 345 348 339 349 348 351 352 354 355 358 6 12 14 17 16 18 26 39 43 65 97 127 144 146 151 155 151 151 166 160 156 161 147 145 148 155 184 201 188 214
349 349 348 349 349 340 347 347 346 349 353 357 359 360 4 10 16 18 19 23 35 44 56 73 93 110 118 111 119 137 140 141 147 144 139 146 143 155 165 182 208 233 232
354 351 352 354 351 346 350 345 353 348 350 353 357 360 359 4 10 13 16 20 31 39 51 61 82 91 105 118 131 125 120 124 129 129 133 125 127 116 127 153 187 211 209
358 353 350 355 351 350 350 347 347 349 351 354 354 356 354 1 4 2 10 16 18 37 52 62 64 65 66 80 80 80 86 97 107 109 119 123 111 123 155 161 178 198 205
356 354 349 352 350 350 349 348 349 346 350 352 353 357 358 358 1 7 10 21 17 25 42 49 52 65 65 73 81 87 95 100 93 92 92 104 145 152 139 174 192 205 216
353 349 352 347 345 346 347 346 345 349 350 350 347 351 360 356 5 12 24 22 13 27 30 34 39 44 36 39 57 81 95 108 117 121 133 151 163 129 161 197 200 209 227
342 347 353 345 344 344 344 344 343 344 345 347 347 348 346 0 10 8 21 18 11 16 18 15 17 16 23 30 36 37 41 56 66 71 121 172 137 158 198 229 242 235 251
323 333 350 347 342 346 342 341 340 343 344 342 345 348 345 6 2 2 8 11 4 5 4 2 358 356 356 354 1 21 15 359 5 7 260 274 285 267 254 252 259 246 250
308 321 342 347 342 342 342 340 341 345 341 342 344 343 345 353 357 356 358 359 357 355 353 351 352 345 340 340 337 330 317 60 322 295 272 258 262 250 245 236 250 255 260
296 311 321 338 337 338 339 341 338 337 340 340 341 337 338 356 347 349 351 351 350 347 348 346 343 340 341 342 332 319 301 286 291 287 283 290 290 276 278 254 256 258 249
281 301 315 331 333 333 336 339 335 341 340 338 337 338 341 346 343 344 343 345 345 343 341 342 344 343 339 336 336 332 303 292 291 274 269 277 279 286 272 266 270 265 261
289 312 315 328 331 331 336 332 335 334 336 337 336 336 340 341 340 339 339 338 339 339 335 337 338 334 330 322 314 307 303 286 255 264 261 269 272 264 256 258 253 273 261
337 4 322 328 330 333 330 334 333 333 334 336 336 336 337 336 335 336 336 335 335 335 335 332 334 335 333 326 321 316 312 297 272 261 250 252 265 272 259 269 254 258 272
7 345 325 331 330 331 333 332 333 335 336 336 336 336 335 334 334 333 333 333 332 331 329 329 327 336 335 326 316 307 294 295 284 266 254 248 251 257 268 250 251 252 250
317 332 331 331 336 336 337 335 337 335 335 337 334 335 334 335 332 331 332 330 328 328 325 323 321 321 329 326 316 305 295 291 290 273 253 245 247 247 246 251 245 249 255